El Paso, TX

10:39 AM MDT on September 26, 2017 (GMT -0600)
El Paso International

Weather History for KELP - April, 2013

Change the Weather History Date:

Monday, April 8, 2013

  Actual Average Record
Temperature  
Mean Temperature 76 °F 62 °F  
Max Temperature 86 °F 77 °F 93 °F (1989)
Min Temperature 65 °F 48 °F 23 °F (1983)
Degree Days  
Heating Degree Days 0 4  
Month to date heating degree days 9 38  
Since 1 July heating degree days 2147 2411  
Cooling Degree Days 11 2  
Month to date cooling degree days 39 10  
Year to date cooling degree days 72 20  
Growing Degree Days 9 (Base 50)    
Moisture  
Dew Point 18 °F    
Average Humidity 14    
Maximum Humidity 22    
Minimum Humidity 6    
Precipitation  
Precipitation 0.00 in 0.00 in 0.54 in (1919)
Month to date precipitation 0.00 0.05  
Year to date precipitation 0.71 1.17  
Snow  
Snow 0.00 in - - ()
Month to date snowfall 0.0  
Since 1 July snowfall 3.1  
Snow Depth 0.00 in    
Sea Level Pressure  
Sea Level Pressure 29.47 in    
Wind  
Wind Speed 18 mph (WSW)    
Max Wind Speed 37 mph    
Max Gust Speed 46 mph    
Visibility 8 miles    
Events      
T = Trace of Precipitation, MM = Missing Value Source: NWS Daily Summary

Daily Weather History Graph

Daily Weather History Graph

Search for Another Location

Airport or City:

Trip Planner

Search our weather history database for the weather conditions in past years. The results will help you decide how hot, cold, wet, or windy it might be!

Date:

Astronomy

Apr. 08, 2013 Rise Set
Actual Time 6:44 AM MDT 7:30 PM MDT
Civil Twilight 6:20 AM MDT 7:54 PM MDT
Nautical Twilight 5:50 AM MDT 8:24 PM MDT
Astronomical Twilight 5:21 AM MDT 8:54 PM MDT
Moon 5:31 AM MDT (4/8) 6:10 PM MDT (4/8)
Length of Visible Light 13h 34m
Length of Day
12h 45m
Waning Crescent, 3% of the Moon is Illuminated
Apr 8
Waning Crescent
Apr 10
New
Apr 18
First Quarter
Apr 25
Full
May 2
Last Quarter

Hourly Weather History & Observations

Time (MDT) Temp. Windchill Dew Point Humidity Pressure Visibility Wind Dir Wind Speed Gust Speed Precip Events Conditions
12:51 AM 72.0 °F - 18.0 °F 13% 29.59 in 10.0 mi SW 11.5 mph 24.2 mph N/A   Clear
1:51 AM 70.0 °F - 19.0 °F 14% 29.57 in 10.0 mi West 12.7 mph - N/A   Clear
2:51 AM 64.9 °F - 19.0 °F 17% 29.57 in 10.0 mi SW 5.8 mph - N/A   Clear
3:51 AM 68.0 °F - 21.0 °F 17% 29.56 in 10.0 mi WSW 10.4 mph 19.6 mph N/A   Clear
4:51 AM 66.9 °F - 24.1 °F 20% 29.57 in 10.0 mi WSW 13.8 mph 23.0 mph N/A   Clear
5:51 AM 66.0 °F - 27.0 °F 23% 29.57 in 10.0 mi West 11.5 mph 23.0 mph N/A   Clear
6:51 AM 66.0 °F - 21.9 °F 19% 29.59 in 10.0 mi West 13.8 mph 24.2 mph N/A   Scattered Clouds
7:51 AM 66.0 °F - 17.1 °F 15% 29.59 in 10.0 mi WSW 16.1 mph 24.2 mph N/A   Mostly Cloudy
8:51 AM 68.0 °F - 16.0 °F 14% 29.60 in 10.0 mi WSW 16.1 mph - N/A   Scattered Clouds
9:51 AM 71.1 °F - 18.0 °F 13% 29.58 in 10.0 mi WSW 17.3 mph - N/A   Scattered Clouds
10:51 AM 73.0 °F - 19.9 °F 14% 29.57 in 10.0 mi SSW 10.4 mph - N/A   Partly Cloudy
11:51 AM 77.0 °F - 21.0 °F 12% 29.53 in 10.0 mi SW 13.8 mph 25.3 mph N/A   Partly Cloudy
12:51 PM 79.0 °F - 21.0 °F 12% 29.48 in 10.0 mi SSW 16.1 mph 25.3 mph N/A   Clear
1:51 PM 82.0 °F - 19.9 °F 10% 29.43 in 10.0 mi SSW 17.3 mph 26.5 mph N/A   Clear
2:51 PM 84.0 °F - 19.9 °F 9% 29.38 in 10.0 mi SW 19.6 mph 25.3 mph N/A   Clear
3:51 PM 86.0 °F - 18.0 °F 8% 29.32 in 10.0 mi SW 20.7 mph 28.8 mph N/A   Partly Cloudy
4:51 PM 32.0 °F 17.0 °F 10.9 °F 42% 29.29 in 3.0 mi WSW 33.4 mph 41.4 mph N/A   Widespread Dust
5:31 PM 82.4 °F - 8.6 °F 6% 29.50 in 2.5 mi West 35.7 mph 41.4 mph N/A   Widespread Dust
5:51 PM 82.0 °F - 12.9 °F 7% 29.31 in 4.0 mi West 26.5 mph 35.7 mph N/A   Widespread Dust
6:51 PM 80.1 °F - 14.0 °F 8% 29.32 in 2.5 mi WSW 26.5 mph 38.0 mph N/A   Widespread Dust
7:28 PM 78.8 °F - 17.6 °F 10% 29.52 in 3.0 mi West 24.2 mph 32.2 mph N/A   Widespread Dust
7:51 PM 77.0 °F - 18.0 °F 11% 29.34 in 3.0 mi WSW 20.7 mph - N/A   Widespread Dust
8:51 PM 75.0 °F - 19.9 °F 13% 29.34 in 5.0 mi WSW 21.9 mph 27.6 mph N/A   Widespread Dust
9:51 PM 73.9 °F - 16.0 °F 11% 29.34 in 7.0 mi SW 19.6 mph 32.2 mph N/A   Clear
10:51 PM 73.4 °F - 17.6 °F 12% 29.53 in 10.0 mi SSW 20.7 mph 34.5 mph N/A   Clear
11:51 PM 71.1 °F - 18.0 °F 13% 29.33 in 10.0 mi SSW 23.0 mph 33.4 mph N/A   Clear